When you browse on this site, cookies collect data to enhance your experience and personalize the content and advertising you see.
Visit our Privacy Policy to learn more. By continuing to use the site, you agree to this use of cookies and data.
  • In Switzerland
  • List of Countries
  • For 7 days
  • Water Temperature
  • Weather Map
  • Weather Widgets
  • user-avatar
    Login

    Hourly Weather Tykhyi Khutir

    Today, 24 February, Monday

    Time Temperature Precipitation Wind Pressure Humidity
    00:00 +3°C° 0.3 mm 5 mps 730 mmHg 92%
    01:00 +3°C° 0.3 mm 6 mps 729 mmHg 90%
    02:00 +4°C° 0.3 mm 6 mps 727 mmHg 89%
    03:00 +4°C° 0.7 mm 7 mps 726 mmHg 89%
    04:00 +4°C° 0.7 mm 8 mps 724 mmHg 88%
    05:00 +3°C° 0.7 mm 9 mps 722 mmHg 88%
    06:00 +3°C° 0.2 mm 9 mps 721 mmHg 83%
    07:00 +3°C° 0.2 mm 9 mps 720 mmHg 79%
    08:00 +3°C° 0.2 mm 9 mps 720 mmHg 74%
    09:00 +2°C° 1 mm 11 mps 721 mmHg 79%
    10:00 -1°C° 1 mm 13 mps 722 mmHg 84%
    11:00 -3°C° 1 mm 15 mps 723 mmHg 89%
    12:00 -1°C° 0.1 mm 14 mps 725 mmHg 81%
    13:00 0°C° 0.1 mm 13 mps 726 mmHg 73%
    14:00 +1°C° 0.1 mm 13 mps 728 mmHg 66%
    15:00 0°C° 0.1 mm 12 mps 729 mmHg 70%
    16:00 +1°C° 0.1 mm 11 mps 730 mmHg 74%
    17:00 0°C° 0.1 mm 10 mps 731 mmHg 78%
    18:00 0°C° 0.1 mm 10 mps 732 mmHg 76%
    19:00 0°C° 0.1 mm 9 mps 733 mmHg 73%
    20:00 0°C° 0.1 mm 9 mps 734 mmHg 71%
    21:00 -1°C° 0 mm 8 mps 734 mmHg 70%
    22:00 -1°C° 0 mm 7 mps 735 mmHg 70%
    23:00 -1°C° 0 mm 7 mps 735 mmHg 70%

    Tomorrow, 25 February, Tuesday

    Time Temperature Precipitation Wind Pressure Humidity
    00:00 -2°C° 0 mm 6 mps 736 mmHg 73%
    01:00 -1°C° 0 mm 5 mps 737 mmHg 77%
    02:00 -2°C° 0 mm 5 mps 737 mmHg 81%
    03:00 -2°C° 0 mm 4 mps 737 mmHg 84%
    04:00 -2°C° 0 mm 4 mps 737 mmHg 86%
    05:00 -1°C° 0 mm 3 mps 737 mmHg 88%
    06:00 -1°C° 0 mm 3 mps 737 mmHg 87%
    07:00 -1°C° 0 mm 3 mps 737 mmHg 85%
    08:00 0°C° 0 mm 3 mps 737 mmHg 83%
    09:00 0°C° 0 mm 4 mps 736 mmHg 78%
    10:00 +1°C° 0 mm 5 mps 736 mmHg 73%
    11:00 +1°C° 0 mm 6 mps 735 mmHg 68%
    12:00 +2°C° 0 mm 6 mps 735 mmHg 70%
    13:00 +2°C° 0 mm 7 mps 734 mmHg 73%
    14:00 +2°C° 0 mm 7 mps 734 mmHg 75%
    15:00 +2°C° 0 mm 6 mps 733 mmHg 74%
    16:00 +2°C° 0 mm 5 mps 733 mmHg 72%
    17:00 +4°C° 0 mm 4 mps 732 mmHg 71%
    18:00 +4°C° 0 mm 4 mps 732 mmHg 70%
    19:00 +4°C° 0 mm 4 mps 731 mmHg 68%
    20:00 +4°C° 0 mm 4 mps 731 mmHg 67%
    21:00 +4°C° 0 mm 4 mps 731 mmHg 67%
    22:00 +4°C° 0 mm 3 mps 731 mmHg 68%
    23:00 +4°C° 0 mm 3 mps 730 mmHg 68%

    Day after tomorrow, 26 February, Wednesday

    Time Temperature Precipitation Wind Pressure Humidity
    00:00 +3°C° 0 mm 3 mps 730 mmHg 70%
    01:00 +3°C° 0 mm 3 mps 730 mmHg 72%
    02:00 +3°C° 0 mm 3 mps 730 mmHg 74%
    03:00 +3°C° 0 mm 3 mps 729 mmHg 76%
    04:00 +2°C° 0 mm 3 mps 728 mmHg 77%
    05:00 +2°C° 0 mm 3 mps 728 mmHg 78%
    06:00 +2°C° 0 mm 3 mps 728 mmHg 78%
    07:00 +2°C° 0 mm 3 mps 727 mmHg 78%
    08:00 +2°C° 0 mm 3 mps 727 mmHg 78%
    09:00 +3°C° 0 mm 3 mps 727 mmHg 74%
    10:00 +5°C° 0 mm 3 mps 727 mmHg 70%
    11:00 +7°C° 0 mm 3 mps 727 mmHg 66%
    12:00 +8°C° 0 mm 2 mps 727 mmHg 63%
    13:00 +9°C° 0 mm 2 mps 726 mmHg 61%
    14:00 +9°C° 0 mm 2 mps 726 mmHg 59%
    15:00 +9°C° 0 mm 2 mps 726 mmHg 61%
    16:00 +9°C° 0 mm 2 mps 726 mmHg 64%
    17:00 +9°C° 0 mm 2 mps 725 mmHg 66%
    18:00 +8°C° 0 mm 2 mps 725 mmHg 68%
    19:00 +8°C° 0 mm 3 mps 726 mmHg 70%
    20:00 +7°C° 0 mm 3 mps 726 mmHg 71%
    21:00 +8°C° 0 mm 3 mps 725 mmHg 72%
    22:00 +7°C° 0 mm 4 mps 725 mmHg 74%
    23:00 +7°C° 0 mm 5 mps 725 mmHg 75%

    27 February, Thursday

    Time Temperature Precipitation Wind Pressure Humidity
    00:00 +6°C° 0 mm 4 mps 725 mmHg 77%
    01:00 +6°C° 0 mm 4 mps 724 mmHg 79%
    02:00 +5°C° 0 mm 3 mps 724 mmHg 81%
    03:00 +5°C° 0 mm 3 mps 724 mmHg 83%
    04:00 +4°C° 0 mm 3 mps 724 mmHg 86%
    05:00 +4°C° 0 mm 3 mps 723 mmHg 88%
    06:00 +5°C° 0 mm 2 mps 724 mmHg 89%
    07:00 +5°C° 0 mm 2 mps 724 mmHg 89%
    08:00 +5°C° 0 mm 2 mps 724 mmHg 89%
    09:00 +5°C° 0 mm 3 mps 724 mmHg 87%
    10:00 +5°C° 0 mm 3 mps 725 mmHg 86%
    11:00 +6°C° 0 mm 4 mps 725 mmHg 84%
    12:00 +5°C° 0.4 mm 4 mps 725 mmHg 86%
    13:00 +3°C° 0.4 mm 5 mps 725 mmHg 87%
    14:00 +3°C° 0.4 mm 5 mps 726 mmHg 89%
    15:00 +3°C° 0.1 mm 5 mps 726 mmHg 84%
    16:00 +3°C° 0.1 mm 5 mps 726 mmHg 79%
    17:00 +2°C° 0.1 mm 5 mps 726 mmHg 74%
    18:00 +2°C° 0 mm 5 mps 727 mmHg 73%
    19:00 +1°C° 0 mm 6 mps 727 mmHg 72%
    20:00 +1°C° 0 mm 6 mps 727 mmHg 71%
    21:00 +1°C° 0 mm 6 mps 727 mmHg 71%
    22:00 0°C° 0 mm 7 mps 727 mmHg 71%
    23:00 -1°C° 0 mm 7 mps 727 mmHg 71%

    28 February, Friday

    Time Temperature Precipitation Wind Pressure Humidity
    00:00 -1°C° 0.3 mm 7 mps 727 mmHg 73%
    01:00 -2°C° 0.3 mm 7 mps 727 mmHg 75%
    02:00 -3°C° 0.3 mm 7 mps 727 mmHg 76%
    03:00 -3°C° 0.1 mm 7 mps 728 mmHg 74%
    04:00 -3°C° 0.1 mm 7 mps 728 mmHg 71%
    05:00 -4°C° 0.1 mm 7 mps 728 mmHg 69%
    06:00 -4°C° 0 mm 7 mps 729 mmHg 65%
    07:00 -4°C° 0 mm 6 mps 729 mmHg 62%
    08:00 -4°C° 0 mm 6 mps 730 mmHg 59%
    09:00 -3°C° 0 mm 6 mps 730 mmHg 58%
    10:00 -2°C° 0 mm 6 mps 731 mmHg 56%
    11:00 -1°C° 0 mm 6 mps 731 mmHg 55%
    12:00 0°C° 0 mm 5 mps 731 mmHg 52%
    13:00 +1°C° 0 mm 5 mps 731 mmHg 49%
    14:00 +2°C° 0 mm 5 mps 731 mmHg 46%
    15:00 +3°C° 0 mm 4 mps 731 mmHg 49%
    16:00 +3°C° 0 mm 4 mps 730 mmHg 51%
    17:00 +3°C° 0 mm 3 mps 730 mmHg 53%
    18:00 +1°C° 0 mm 4 mps 730 mmHg 56%
    19:00 +1°C° 0 mm 4 mps 730 mmHg 59%
    20:00 +1°C° 0 mm 5 mps 730 mmHg 62%
    21:00 +1°C° 0.1 mm 5 mps 729 mmHg 67%
    22:00 +1°C° 0.1 mm 6 mps 729 mmHg 72%
    23:00 0°C° 0.1 mm 7 mps 728 mmHg 76%

    29 February, Saturday

    Time Temperature Precipitation Wind Pressure Humidity
    00:00 +1°C° 0 mm 6 mps 728 mmHg 78%
    01:00 +1°C° 0 mm 6 mps 728 mmHg 79%
    02:00 +1°C° 0 mm 5 mps 728 mmHg 80%
    03:00 +1°C° 0 mm 5 mps 728 mmHg 80%
    04:00 +1°C° 0 mm 6 mps 728 mmHg 79%
    05:00 +1°C° 0 mm 6 mps 728 mmHg 78%
    06:00 -1°C° 0 mm 6 mps 728 mmHg 78%
    07:00 -1°C° 0 mm 7 mps 729 mmHg 78%
    08:00 -1°C° 0 mm 7 mps 729 mmHg 77%
    09:00 0°C° 0 mm 7 mps 729 mmHg 72%
    10:00 +2°C° 0 mm 7 mps 730 mmHg 67%
    11:00 +2°C° 0 mm 7 mps 730 mmHg 62%
    12:00 +3°C° 0 mm 7 mps 730 mmHg 59%
    13:00 +3°C° 0 mm 6 mps 730 mmHg 56%
    14:00 +4°C° 0 mm 6 mps 730 mmHg 53%
    15:00 +4°C° 0 mm 6 mps 729 mmHg 54%
    16:00 +5°C° 0 mm 5 mps 729 mmHg 54%
    17:00 +5°C° 0 mm 4 mps 729 mmHg 55%
    18:00 +5°C° 0 mm 5 mps 729 mmHg 57%
    19:00 +5°C° 0 mm 5 mps 728 mmHg 60%
    20:00 +5°C° 0 mm 5 mps 728 mmHg 63%
    21:00 +4°C° 0 mm 6 mps 727 mmHg 67%
    22:00 +5°C° 0 mm 6 mps 727 mmHg 72%
    23:00 +5°C° 0 mm 6 mps 727 mmHg 76%
    Show more